Location: Hobi?a Gr?di?te
(45.4833°N, 22.7833°E)
Time: 10:57:15
(UTC+00:00)

Cosmos 1536 Rocket - Pass Details

Date: 28 January 2023
Orbit: 604 x 631 km, 82.5° (Epoch: 01 April)

Event Time Altitude Azimuth Distance (km) Brightness Sun altitude
Rises 16:35:56 0° 172° (S) 2,845 7.0 -11.8°
Reaches altitude 10° 16:38:11 10° 167° (SSE) 1,946 6.1 -12.2°
Maximum altitude 16:42:19 47° 93° (E) 802 3.7 -12.9°
Drops below altitude 10° 16:46:29 10° 20° (NNE) 1,964 5.8 -13.6°
Sets 16:48:45 0° 15° (NNE) 2,875 6.7 -14.0°
